This demonstration page uses our WeatherBlox Daily Observations layout. Learn more.

Left ArrowRight Arrow

38.80484, -77.04692

Hourly Observations for February 22, 2021

Temp ( °F °C ) Dew Point ( °F °C ) Humidity (%) Winds ( mph kmh ) Pressure ( in mb ) Visibility ( mi km ) Precip ( " mm )
12:52 am 00:52 Cloudy 33 0.6 19 -7.2 56 56 S 12 19 30.41 1030 10 16.0934 0 0
1:52 am 01:52 Cloudy 33 0.6 20 -6.7 58 58 S 12 19 30.38 1029 10 16.0934 0 0
2:52 am 02:52 Cloudy 32 0 22 -5.6 66 66 S 12 19 30.35 1028 10 16.0934 0 0
3:52 am 03:52 Cloudy 33 0.6 23 -5 66 66 S 13 20 30.31 1026 10 16.0934 0 0
4:52 am 04:52 Cloudy 33 0.6 24 -4.4 70 70 S 15 24 30.27 1025 10 16.0934 0 0
5:52 am 05:52 Cloudy 33 0.6 24 -4.4 70 70 S 15 24 30.23 1024 10 16.0934 0 0
6:52 am 06:52 Cloudy 33 0.6 24 -4.4 70 70 S 15 24 30.19 1022 10 16.0934 0 0
7:52 am 07:52 Cloudy 34 1.1 23 -5 64 64 S 10 17 30.16 1022 10 16.0934 0 0
8:24 am 08:24 Cloudy with Light Snow 34 1.1 23 -5 64 64 S 8 13 30.16 1021 3 4.82802 0.001 0.001
8:34 am 08:34 Cloudy with Light Snow 33 0.6 24 -4.4 70 70 S 9 15 30.16 1021 2.5 4.02335 0.001 0.001
8:52 am 08:52 Cloudy with Light Snow 32 0 26 -3.3 79 79 S 8 13 30.14 1021 2 3.21868 0.01 0.254
9:01 am 09:01 Cloudy with Light Snow 32 0 27 -2.8 82 82 S 7 11 30.14 1021 1.5 2.41401 0.001 0.001
9:24 am 09:24 Cloudy with Light Rain/Snow 32 0 28 -2.2 85 85 S 7 11 30.12 1020 4 6.43736 0.01 0.254
9:40 am 09:40 Cloudy 32 0 28 -2.2 85 85 S 7 11 30.1 1019 4 6.43736 0.02 0.508
9:52 am 09:52 Cloudy with Light Freezing Rain 32 0 29 -1.7 88 88 S 8 13 30.08 1019 4 6.43736 0.03 0.762
10:52 am 10:52 Cloudy with Light Freezing Rain 32 0 29 -1.7 88 88 S 10 17 30.04 1017 3 4.82802 0.09 2.286
11:16 am 11:16 Cloudy with Light Freezing Rain 32 0 30 -1.1 92 92 SSW 7 11 30.03 1017 2.5 4.02335 0.06 1.524
11:32 am 11:32 Cloudy with Light Freezing Rain 32 0 30 -1.1 92 92 S 8 13 30.01 1016 2.5 4.02335 0.1 2.54
11:46 am 11:46 Cloudy with Rain 34 1 30 -1 87 87 SSW 7 11 30.01 1016 2.5 4.02335 0.14 3.556
11:52 am 11:52 Cloudy with Rain 33 0.6 31 -0.6 92 92 SSW 8 13 30.01 1016 2.5 4.02335 0.15 3.81
12:08 pm 12:08 Cloudy with Rain 33 0.6 31 -0.6 92 92 SSW 8 13 30 1016 3 4.82802 0.05 1.27
12:42 pm 12:42 Cloudy with Light Rain 33 0.6 31 -0.6 92 92 S 16 26 29.93 1014 5 8.0467 0.12 3.048
12:52 pm 12:52 Cloudy with Light Rain 33 0.6 31 -0.6 92 92 S 13 20 29.92 1013 4 6.43736 0.12 3.048
1:35 pm 13:35 Cloudy with Light Rain 35 1.7 33 0.6 93 93 S 12 19 29.86 1011 9 14.48406 0.01 0.254
1:52 pm 13:52 Cloudy 35 1.7 33 0.6 93 93 S 15 24 29.82 1010 8 12.87472 0.01 0.254
2:52 pm 14:52 Cloudy 36 2.2 34 1.1 93 93 SSW 9 15 29.81 1009 10 16.0934 0 0
3:31 pm 15:31 Cloudy 37 2.8 34 1.1 89 89 SSW 10 17 29.81 1010 10 16.0934 0 0
3:52 pm 15:52 Cloudy 37 2.8 34 1.1 89 89 SW 8 13 29.81 1009 10 16.0934 0 0
4:04 pm 16:04 Cloudy 37 2.8 35 1.7 93 93 SSW 7 11 29.8 1009 10 16.0934 0 0
4:52 pm 16:52 Mostly Cloudy 40 4.4 36 2.2 86 86 SW 9 15 29.8 1009 10 16.0934 0 0
5:00 pm 17:00 Mostly Cloudy 40 4.4 36 2.2 86 86 WSW 6 9 29.8 1009 10 16.0934 0 0
5:04 pm 17:04 Partly Cloudy 40 4.4 36 2.2 86 86 SW 7 11 29.8 1009 10 16.0934 0 0
5:52 pm 17:52 Mostly Sunny 39 3.9 35 1.7 86 86 W 6 9 29.81 1009 10 16.0934 0 0
6:52 pm 18:52 Mostly Clear 37 2.8 34 1.1 89 89 SSW 7 11 29.83 1010 10 16.0934 0 0
7:52 pm 19:52 Mostly Cloudy 37 2.8 34 1.1 89 89 WNW 5 7 29.85 1011 10 16.0934 0 0
8:26 pm 20:26 Mostly Cloudy with Fog 36 2.2 34 1.1 93 93 S 5 7 29.87 1012 7 11.26538 0 0
8:44 pm 20:44 Mostly Cloudy with Fog 35 1.7 33 0.6 93 93 Calm 29.87 1012 4 6.43736 0 0
8:52 pm 20:52 Mostly Cloudy with Fog 35 1.7 34 1.1 96 96 S 5 7 29.87 1012 4 6.43736 0 0
9:03 pm 21:03 Mostly Cloudy 35 1.7 33 0.6 93 93 S 8 13 29.87 1012 7 11.26538 0 0
9:52 pm 21:52 Mostly Cloudy 35 1.7 33 0.6 93 93 SSW 6 9 29.88 1012 9 14.48406 0 0
10:52 pm 22:52 Partly Cloudy 34 1.1 33 0.6 97 97 S 5 7 29.88 1012 7 11.26538 0 0
11:52 pm 23:52 Mostly Clear with Mist and Fog 33 0.6 31 -0.6 92 92 WSW 7 11 29.87 1012 6 9.65604 0 0

Powered by AerisWeather